TimeCDT,TemperatureF,Dew PointF,Humidity,Sea Level PressureIn,VisibilityMPH,Wind Direction,Wind SpeedMPH,Gust SpeedMPH,PrecipitationIn,Events,Conditions,WindDirDegrees,DateUTC
12:53 AM,55.0,50.0,83,29.96,10.0,SE,3.5,-,N/A,,Clear,140,2013-09-24 05:53:00
1:53 AM,51.1,48.9,92,29.95,10.0,Calm,Calm,-,N/A,,Clear,0,2013-09-24 06:53:00
2:53 AM,55.0,50.0,83,29.94,10.0,SSE,3.5,-,N/A,,Clear,150,2013-09-24 07:53:00
3:53 AM,52.0,48.9,89,29.95,10.0,Calm,Calm,-,N/A,,Clear,0,2013-09-24 08:53:00
4:53 AM,52.0,50.0,93,29.95,10.0,Calm,Calm,-,N/A,,Clear,0,2013-09-24 09:53:00
5:53 AM,51.1,48.9,92,29.94,10.0,Calm,Calm,-,N/A,,Scattered Clouds,0,2013-09-24 10:53:00
6:53 AM,54.0,51.1,90,29.95,10.0,Calm,Calm,-,N/A,,Scattered Clouds,0,2013-09-24 11:53:00
7:53 AM,57.0,53.1,87,29.93,10.0,SE,4.6,-,N/A,,Scattered Clouds,140,2013-09-24 12:53:00
8:53 AM,61.0,54.0,78,29.93,10.0,Calm,Calm,-,N/A,,Overcast,0,2013-09-24 13:53:00
9:53 AM,66.0,55.9,70,29.92,10.0,Calm,Calm,-,N/A,,Scattered Clouds,0,2013-09-24 14:53:00
10:53 AM,69.1,57.0,65,29.91,10.0,SSE,6.9,-,N/A,,Clear,160,2013-09-24 15:53:00
11:53 AM,75.0,59.0,57,29.89,10.0,ESE,9.2,-,N/A,,Mostly Cloudy,120,2013-09-24 16:53:00
12:53 PM,79.0,57.9,48,29.86,10.0,SE,8.1,17.3,N/A,,Scattered Clouds,130,2013-09-24 17:53:00
1:53 PM,80.1,57.9,47,29.84,10.0,ESE,12.7,-,N/A,,Mostly Cloudy,110,2013-09-24 18:53:00
2:53 PM,82.0,59.0,45,29.81,10.0,ESE,10.4,-,N/A,,Mostly Cloudy,120,2013-09-24 19:53:00
3:53 PM,84.0,60.1,44,29.79,10.0,SE,8.1,-,N/A,,Scattered Clouds,130,2013-09-24 20:53:00
4:53 PM,82.0,61.0,49,29.79,10.0,SE,11.5,17.3,N/A,,Scattered Clouds,130,2013-09-24 21:53:00
5:53 PM,78.1,63.0,60,29.79,10.0,SE,5.8,-,N/A,,Mostly Cloudy,130,2013-09-24 22:53:00
6:53 PM,75.0,64.0,69,29.79,10.0,SSE,4.6,-,N/A,,Mostly Cloudy,150,2013-09-24 23:53:00
7:53 PM,73.0,64.0,73,29.80,10.0,SSE,8.1,-,N/A,,Clear,150,2013-09-25 00:53:00
8:53 PM,70.0,64.0,81,29.80,10.0,SSE,10.4,-,N/A,,Clear,150,2013-09-25 01:53:00
9:53 PM,68.0,63.0,84,29.81,10.0,SE,4.6,-,N/A,,Clear,130,2013-09-25 02:53:00
10:53 PM,64.9,62.1,90,29.82,10.0,ESE,4.6,-,N/A,,Clear,110,2013-09-25 03:53:00
11:29 PM,66.2,64.4,94,29.84,10.0,Calm,Calm,-,N/A,,Mostly Cloudy,0,2013-09-25 04:29:00
11:53 PM,66.9,64.0,90,29.83,10.0,East,5.8,-,N/A,,Overcast,100,2013-09-25 04:53:00